This is the latest recevied weather packets stored in our database for station/object WE1C. If no packets are shown the sender has not sent any weather packets the latest 10 day(s).
| Time | Temp. | Humidity | Pressure | Rain* | Wind** | Luminosity | Snow |
|---|---|---|---|---|---|---|---|
| 1777489167 | 15° C | 57% | 1043.1 hPa | 0 mm | - | 310 W/m² | - |
| 1777488864 | 15° C | 56% | 1042.8 hPa | 0 mm | - | 406 W/m² | - |
| 1777488561 | 14.44° C | 58% | 1043.2 hPa | 0 mm | - | 438 W/m² | - |
| 1777488259 | 15° C | 61% | 1043.1 hPa | 0 mm | - | 432 W/m² | - |
| 1777487957 | 14.44° C | 59% | 1043.3 hPa | 0 mm | - | 355 W/m² | - |
| 1777487655 | 14.44° C | 60% | 1043.4 hPa | 0 mm | - | 318 W/m² | - |
| 1777487351 | 14.44° C | 61% | 1043.4 hPa | 0 mm | - | 370 W/m² | - |
| 1777487050 | 15° C | 61% | 1043.5 hPa | 0 mm | - | 392 W/m² | - |
| 1777486744 | 15° C | 62% | 1043.6 hPa | 0 mm | - | 380 W/m² | - |
| 1777486443 | 14.44° C | 62% | 1043.7 hPa | 0 mm | - | 490 W/m² | - |
| 1777486140 | 13.89° C | 65% | 1043.6 hPa | 0 mm | - | 474 W/m² | - |
| 1777485836 | 13.33° C | 65% | 1043.9 hPa | 0 mm | - | 412 W/m² | - |
| 1777485532 | 13.33° C | 65% | 1043.9 hPa | 0 mm | - | 412 W/m² | - |
| 1777485229 | 13.89° C | 65% | 1043.8 hPa | 0 mm | - | 344 W/m² | - |
| 1777484925 | 13.89° C | 64% | 1043.8 hPa | 0 mm | - | 364 W/m² | - |
| 1777484622 | 13.33° C | 65% | 1043.9 hPa | 0 mm | - | 512 W/m² | - |
| 1777484319 | 13.89° C | 66% | 1043.7 hPa | 0 mm | - | 446 W/m² | - |
| 1777484014 | 13.33° C | 65% | 1043.8 hPa | 0 mm | - | 608 W/m² | - |
| 1777483712 | 14.44° C | 63% | 1043.9 hPa | 0 mm | - | 789 W/m² | - |
| 1777483407 | 14.44° C | 64% | 1043.8 hPa | 0 mm | - | 718 W/m² | - |
| 1777483102 | 13.33° C | 65% | 1043.9 hPa | 0 mm | - | 712 W/m² | - |
| 1777482800 | 13.33° C | 64% | 1044.1 hPa | 0 mm | - | 711 W/m² | - |
| 1777482495 | 13.33° C | 66% | 1044 hPa | 0 mm | - | 722 W/m² | - |
| 1777482193 | 13.33° C | 66% | 1044 hPa | 0 mm | - | 577 W/m² | - |
| 1777481890 | 12.78° C | 67% | 1044.1 hPa | 0 mm | - | 751 W/m² | - |
* Rain latest hour (hover to see other rain measurements)
** Current wind speed in m/s (hover to see current wind gust speed)